| time (UTC) | temp C | wind direction | speed KPH | gust KPH | rain 1hr cm | rain 24hr cm | rain mn cm | humidity % | barometer mb |
| 20260503044605 | 2 | 185 | 6.4 | 0.0 | 0.00 | 0.00 | 0.00 | 69 | 988.0 |
| 20260503043125 | 2 | 182 | 8.0 | 0.0 | 0.00 | 0.00 | 0.00 | 70 | 987.4 |
| 20260503041606 | 2 | 185 | 8.0 | 0.0 | 0.00 | 0.00 | 0.00 | 70 | 987.4 |
| 20260503040139 | 2 | 196 | 8.0 | 0.0 | 0.00 | 0.00 | 0.00 | 70 | 987.4 |
| 20260503034606 | 2 | 196 | 8.0 | 0.0 | 0.00 | 0.00 | 0.00 | 68 | 988.7 |
| 20260503033127 | 2 | 198 | 8.0 | 0.0 | 0.00 | 0.00 | 0.00 | 68 | 988.7 |
| 20260503031606 | 3 | 199 | 9.7 | 0.0 | 0.00 | 0.00 | 0.00 | 68 | 988.8 |
| 20260503030138 | 3 | 201 | 8.0 | 0.0 | 0.00 | 0.00 | 0.00 | 68 | 988.8 |
| 20260503024606 | 3 | 205 | 8.0 | 0.0 | 0.00 | 0.00 | 0.00 | 62 | 989.7 |
| 20260503023125 | 3 | 199 | 6.4 | 0.0 | 0.00 | 0.00 | 0.00 | 67 | 989.1 |
| 20260503021606 | 3 | 210 | 8.0 | 0.0 | 0.00 | 0.00 | 0.00 | 67 | 989.0 |
| 20260503020135 | 4 | 216 | 8.0 | 0.0 | 0.00 | 0.00 | 0.00 | 67 | 989.0 |
| 20260503014606 | 4 | 230 | 8.0 | 0.0 | 0.00 | 0.00 | 0.00 | 56 | 988.8 |
| 20260503013124 | 5 | 234 | 9.7 | 0.0 | 0.00 | 0.00 | 0.00 | 56 | 988.8 |
| 20260503011606 | 5 | 231 | 8.0 | 0.0 | 0.00 | 0.00 | 0.00 | 56 | 988.8 |
| 20260503010135 | 5 | 238 | 8.0 | 0.0 | 0.00 | 0.00 | 0.00 | 56 | 988.8 |
| 20260503004605 | 6 | 247 | 8.0 | 0.0 | 0.00 | 0.00 | 0.00 | 40 | 989.5 |
| 20260503003119 | 6 | 243 | 8.0 | 0.0 | 0.00 | 0.00 | 0.00 | 40 | 989.7 |
| 20260503001606 | 7 | 250 | 8.0 | 0.0 | 0.00 | 0.00 | 0.00 | 40 | 989.7 |
| 20260503000141 | 7 | 265 | 8.0 | 0.0 | 0.00 | 0.00 | 0.00 | 40 | 989.7 |
| 20260502234607 | 8 | 280 | 9.7 | 0.0 | 0.00 | 0.00 | 0.00 | 35 | 989.6 |
| 20260502233119 | 8 | 284 | 11.3 | 0.0 | 0.00 | 0.00 | 0.00 | 35 | 989.7 |
| 20260502231607 | 8 | 287 | 11.3 | 0.0 | 0.00 | 0.00 | 0.00 | 35 | 989.7 |
| 20260502230133 | 8 | 288 | 12.9 | 0.0 | 0.00 | 0.00 | 0.00 | 35 | 989.7 |
| 20260502224606 | 8 | 288 | 14.5 | 0.0 | 0.00 | 0.00 | 0.00 | 33 | 990.0 |
| 20260502223125 | 8 | 285 | 16.1 | 0.0 | 0.00 | 0.00 | 0.00 | 33 | 990.8 |
| 20260502221607 | 8 | 284 | 17.7 | 0.0 | 0.00 | 0.00 | 0.00 | 33 | 990.8 |
| 20260502220134 | 8 | 282 | 17.7 | 0.0 | 0.00 | 0.00 | 0.00 | 33 | 990.8 |
| 20260502214607 | 8 | 283 | 19.3 | 0.0 | 0.00 | 0.00 | 0.00 | 34 | 990.9 |
| 20260502213125 | 8 | 281 | 17.7 | 0.0 | 0.00 | 0.00 | 0.00 | 37 | 990.6 |
| 20260502211607 | 8 | 278 | 17.7 | 0.0 | 0.00 | 0.00 | 0.00 | 37 | 990.6 |
| 20260502210136 | 8 | 276 | 17.7 | 0.0 | 0.00 | 0.00 | 0.00 | 37 | 990.6 |
| 20260502204606 | 8 | 274 | 17.7 | 0.0 | 0.00 | 0.00 | 0.00 | 38 | 991.1 |
| 20260502203125 | 8 | 271 | 16.1 | 0.0 | 0.00 | 0.00 | 0.00 | 36 | 991.4 |
| 20260502201607 | 8 | 272 | 17.7 | 0.0 | 0.00 | 0.00 | 0.00 | 36 | 991.4 |
| 20260502200133 | 8 | 272 | 17.7 | 0.0 | 0.00 | 0.00 | 0.00 | 36 | 991.4 |
| 20260502194607 | 8 | 274 | 17.7 | 0.0 | 0.00 | 0.00 | 0.00 | 29 | 991.6 |
| 20260502193120 | 8 | 275 | 19.3 | 0.0 | 0.00 | 0.00 | 0.00 | 29 | 991.6 |
| 20260502191607 | 9 | 278 | 20.9 | 0.0 | 0.00 | 0.00 | 0.00 | 29 | 991.7 |
| 20260502190134 | 9 | 281 | 19.3 | 0.0 | 0.00 | 0.00 | 0.00 | 29 | 991.7 |
| 20260502184607 | 8 | 283 | 19.3 | 0.0 | 0.00 | 0.00 | 0.00 | 38 | 991.7 |
| 20260502183126 | 8 | 292 | 19.3 | 0.0 | 0.00 | 0.00 | 0.00 | 38 | 991.7 |
| 20260502181606 | 8 | 290 | 19.3 | 0.0 | 0.00 | 0.00 | 0.00 | 38 | 991.7 |
| 20260502180140 | 8 | 287 | 17.7 | 0.0 | 0.00 | 0.00 | 0.00 | 38 | 991.7 |
| 20260502170130 | 7 | 278 | 16.1 | 0.0 | 0.00 | 0.00 | 0.00 | 42 | 992.1 |
| 20260502163126 | 7 | 280 | 16.1 | 0.0 | 0.00 | 0.00 | 0.00 | 40 | 991.0 |
| 20260502161606 | 7 | 281 | 14.5 | 0.0 | 0.00 | 0.00 | 0.00 | 40 | 991.0 |
| 20260502160137 | 7 | 285 | 12.9 | 0.0 | 0.00 | 0.00 | 0.00 | 40 | 991.0 |
| 20260502151607 | 6 | 300 | 11.3 | 0.0 | 0.00 | 0.00 | 0.00 | 52 | 991.1 |
| 20260502150140 | 5 | 299 | 11.3 | 0.0 | 0.00 | 0.00 | 0.00 | 52 | 991.1 |
| 20260502130135 | 2 | 336 | 6.4 | 0.0 | 0.00 | 0.00 | 0.00 | 74 | 991.7 |
| 20260502123124 | 1 | 327 | 6.4 | 0.0 | 0.00 | 0.00 | 0.00 | 79 | 991.8 |
| 20260502121607 | 1 | 326 | 6.4 | 0.0 | 0.00 | 0.00 | 0.00 | 79 | 991.8 |
| 20260502120149 | 0 | 317 | 6.4 | 0.0 | 0.00 | 0.00 | 0.00 | 79 | 991.8 |
| 20260502114607 | 0 | 306 | 4.8 | 0.0 | 0.00 | 0.00 | 0.00 | 84 | 991.7 |
| 20260502113128 | 0 | 284 | 1.6 | 0.0 | 0.00 | 0.00 | 0.00 | 86 | 991.7 |
| 20260502111606 | 0 | 270 | 1.6 | 0.0 | 0.00 | 0.00 | 0.00 | 86 | 991.4 |
| 20260502110135 | 0 | 281 | 1.6 | 0.0 | 0.00 | 0.00 | 0.00 | 86 | 991.4 |
| 20260502104606 | 0 | 270 | 0.0 | 0.0 | 0.00 | 0.00 | 0.00 | 86 | 991.2 |
| 20260502103125 | 0 | 338 | 1.6 | 0.0 | 0.00 | 0.00 | 0.00 | 86 | 991.5 |
| 20260502101606 | 0 | 329 | 1.6 | 0.0 | 0.00 | 0.00 | 0.00 | 86 | 991.5 |
| 20260502100136 | 0 | 310 | 1.6 | 0.0 | 0.00 | 0.00 | 0.00 | 86 | 991.5 |
| 20260502090135 | 0 | 291 | 4.8 | 0.0 | 0.00 | 0.00 | 0.00 | 85 | 991.0 |
| 20260502070137 | 0 | 315 | 4.8 | 0.0 | 0.00 | 0.00 | 0.00 | 82 | 990.2 |
| 20260502064606 | 0 | 313 | 4.8 | 0.0 | 0.00 | 0.00 | 0.00 | 76 | 991.4 |
| 20260502063126 | 0 | 297 | 4.8 | 0.0 | 0.00 | 0.00 | 0.00 | 77 | 991.3 |
| 20260502061606 | 0 | 286 | 6.4 | 0.0 | 0.00 | 0.00 | 0.00 | 77 | 991.3 |
| 20260502060152 | 0 | 288 | 6.4 | 0.0 | 0.00 | 0.00 | 0.00 | 77 | 991.3 |
| 20260502054606 | 0 | 288 | 6.4 | 0.0 | 0.00 | 0.00 | 0.00 | 74 | 990.6 |
| 20260502053125 | 0 | 288 | 6.4 | 0.0 | 0.00 | 0.00 | 0.00 | 77 | 991.0 |
| 20260502051605 | 0 | 291 | 6.4 | 0.0 | 0.00 | 0.00 | 0.00 | 77 | 991.0 |
| 20260502050137 | 0 | 295 | 6.4 | 0.0 | 0.00 | 0.00 | 0.00 | 77 | 991.0 |